Weather History for Zephyrhills, FL

Change the Weather History Date:

Friday, January 25, 2013

  Actual Average (KPCM) Record (KPCM)
Temperature  
Mean Temperature 58 °F -  
Max Temperature 75 °F 73 °F 86 °F (2012)
Min Temperature 41 °F 48 °F 25 °F (1940)
Degree Days  
Heating Degree Days 7    
Growing Degree Days 8 (Base 50)    
Moisture  
Dew Point 44 °F    
Average Humidity 73    
Maximum Humidity 100    
Minimum Humidity 29    
Precipitation  
Precipitation 0.00 in - - ()
Sea Level Pressure  
Sea Level Pressure 30.28 in    
Wind  
Wind Speed 1 mph (SW)    
Max Wind Speed 9 mph    
Max Gust Speed 17 mph    
Visibility 6 miles    
Events Fog    
Averages and records for this station are not official NWS values.
T = Trace of Precipitation, MM = Missing Value Source: NWS Daily Summary

Daily Weather History Graph

Daily Weather History Graph

Search for Another Location

Airport:

Trip Planner

Search our weather history database for the weather conditions in past years. The results will help you decide how hot, cold, wet, or windy it might be!

Date:

Astronomy

Jan. 25, 2013 Rise Set
Actual Time 7:19 AM EST 6:03 PM EST
Civil Twilight 6:54 AM EST 6:28 PM EST
Nautical Twilight 6:25 AM EST 6:56 PM EST
Astronomical Twilight 5:57 AM EST 7:24 PM EST
Moon 4:58 PM EST (1/25) 5:57 AM EST (1/25)
Length of Visible Light 11h 33m
Length of Day
10h 44m
Waxing Gibbous, 98% of the Moon is Illuminated
Jan 25
Waxing Gibbous
Jan 26
Full
Feb 3
Last Quarter
Feb 10
New
Feb 17
First Quarter

Hourly Weather History & Observations

Time (EST) Temp. Windchill Dew Point Humidity Pressure Visibility Wind Dir Wind Speed Gust Speed Precip Events Conditions
12:15 AM 44.6 °F - 44.6 °F 100% 30.33 in 1.2 mi Calm Calm - N/A   Mist
12:35 AM 42.8 °F - 42.8 °F 100% 30.33 in 5.0 mi Calm Calm - N/A   Clear
12:55 AM 42.8 °F - 42.8 °F 100% 30.32 in 7.0 mi Calm Calm - N/A   Clear
1:15 AM 44.6 °F - 44.6 °F 100% 30.32 in 3.0 mi Calm Calm - N/A   Clear
1:35 AM 44.6 °F - 42.8 °F 93% 30.32 in 0.5 mi Calm Calm - N/A Fog Fog
1:55 AM 42.8 °F - 42.8 °F 100% 30.31 in 1.5 mi Calm Calm - N/A   Mist
2:15 AM 44.6 °F - 42.8 °F 93% 30.31 in 3.0 mi Calm Calm - N/A   Scattered Clouds
2:35 AM 42.8 °F - 42.8 °F 100% 30.30 in 4.0 mi Calm Calm - N/A   Mostly Cloudy
2:55 AM 42.8 °F - 42.8 °F 100% 30.29 in 0.2 mi Calm Calm - N/A Fog Fog
3:15 AM 42.8 °F - 42.8 °F 100% 30.29 in 0.2 mi Calm Calm - N/A Fog Fog
3:35 AM 42.8 °F - 42.8 °F 100% 30.28 in 0.2 mi Calm Calm - N/A Fog Fog
3:55 AM 42.8 °F - 42.8 °F 100% 30.28 in 0.2 mi Calm Calm - N/A Fog Fog
4:15 AM 42.8 °F - 42.8 °F 100% 30.29 in 0.2 mi Calm Calm - N/A Fog Fog
4:35 AM 42.8 °F - 42.8 °F 100% 30.29 in 0.2 mi Calm Calm - N/A Fog Fog
4:55 AM 42.8 °F - 42.8 °F 100% 30.29 in 0.2 mi Calm Calm - N/A Fog Fog
5:15 AM 41.0 °F - 41.0 °F 100% 30.30 in 0.2 mi Calm Calm - N/A Fog Fog
5:35 AM 41.0 °F - 41.0 °F 100% 30.30 in 0.5 mi Calm Calm - N/A Fog Fog
5:55 AM 41.0 °F - 41.0 °F 100% 30.31 in 0.2 mi Calm Calm - N/A Fog Fog
6:15 AM 41.0 °F - 41.0 °F 100% 30.32 in 0.2 mi Calm Calm - N/A Fog Fog
6:35 AM 41.0 °F - 41.0 °F 100% 30.32 in 0.2 mi Calm Calm - N/A Fog Fog
7:15 AM 41.0 °F - 41.0 °F 100% 30.33 in 0.2 mi Calm Calm - N/A Fog Fog
7:35 AM 41.0 °F - 41.0 °F 100% 30.32 in 0.2 mi Calm Calm - N/A Fog Fog
7:55 AM 42.8 °F - 42.8 °F 100% 30.32 in 0.2 mi Calm Calm - N/A Fog Fog
8:35 AM 44.6 °F - 44.6 °F 100% 30.33 in 0.2 mi Calm Calm - N/A Fog Fog
8:55 AM 46.4 °F - 44.6 °F 93% 30.34 in 0.2 mi Calm Calm - N/A Fog Fog
9:15 AM 46.4 °F - 46.4 °F 100% 30.34 in 0.2 mi Calm Calm - N/A Fog Fog
9:35 AM 50.0 °F - 50.0 °F 100% 30.35 in 0.2 mi Calm Calm - N/A Fog Fog
9:55 AM 51.8 °F - 51.8 °F 100% 30.34 in 5.0 mi Calm Calm - N/A   Scattered Clouds
10:15 AM 55.4 °F - 55.4 °F 100% 30.35 in 10.0 mi Calm Calm - N/A   Clear
10:35 AM 60.8 °F - 55.4 °F 82% 30.34 in 10.0 mi Calm Calm - N/A   Clear
10:55 AM 64.4 °F - 55.4 °F 73% 30.34 in 10.0 mi Calm Calm - N/A   Clear
11:15 AM 68.0 °F - 55.4 °F 64% 30.33 in 10.0 mi Calm Calm - N/A   Clear
11:35 AM 69.8 °F - 53.6 °F 56% 30.33 in 10.0 mi Calm Calm - N/A   Clear
11:55 AM 71.6 °F - 46.4 °F 41% 30.31 in 10.0 mi SSW 4.6 mph - N/A   Clear
12:15 PM 71.6 °F - 44.6 °F 38% 30.30 in 10.0 mi Calm Calm - N/A   Clear
12:35 PM 71.6 °F - 42.8 °F 35% 30.29 in 10.0 mi Calm Calm - N/A   Clear
12:55 PM 71.6 °F - 42.8 °F 35% 30.28 in 10.0 mi SSE 5.8 mph - N/A   Clear
1:15 PM 73.4 °F - 42.8 °F 33% 30.27 in 10.0 mi Calm Calm - N/A   Clear
1:35 PM 73.4 °F - 41.0 °F 31% 30.26 in 10.0 mi Calm Calm - N/A   Clear
2:15 PM 73.4 °F - 41.0 °F 31% 30.24 in 10.0 mi SW 6.9 mph - N/A   Clear
2:35 PM 75.2 °F - 41.0 °F 29% 30.23 in 10.0 mi SW 9.2 mph - N/A   Clear
2:55 PM 75.2 °F - 41.0 °F 29% 30.22 in 10.0 mi South 4.6 mph - N/A   Clear
3:15 PM 75.2 °F - 41.0 °F 29% 30.22 in 10.0 mi South 6.9 mph - N/A   Clear
3:35 PM 75.2 °F - 41.0 °F 29% 30.21 in 10.0 mi SSW 6.9 mph - N/A   Clear
3:55 PM 73.4 °F - 41.0 °F 31% 30.21 in 10.0 mi SW 5.8 mph - N/A   Clear
4:15 PM 73.4 °F - 39.2 °F 29% 30.20 in 10.0 mi South 4.6 mph - N/A   Clear
4:35 PM 73.4 °F - 39.2 °F 29% 30.20 in 10.0 mi South 5.8 mph - N/A   Clear
4:55 PM 73.4 °F - 39.2 °F 29% 30.21 in 10.0 mi SW 5.8 mph - N/A   Clear
5:15 PM 71.6 °F - 41.0 °F 33% 30.21 in 10.0 mi SW 5.8 mph - N/A   Clear
5:35 PM 69.8 °F - 39.2 °F 33% 30.22 in 10.0 mi SW 4.6 mph - N/A   Clear
5:55 PM 68.0 °F - 41.0 °F 37% 30.22 in 10.0 mi WSW 3.5 mph - N/A   Clear
6:15 PM 66.2 °F - 42.8 °F 43% 30.23 in 10.0 mi NW 8.1 mph 17.3 mph N/A   Clear
6:35 PM 64.4 °F - 42.8 °F 45% 30.23 in 10.0 mi NW 5.8 mph - N/A   Clear
6:55 PM 62.6 °F - 42.8 °F 48% 30.24 in 10.0 mi NW 5.8 mph - N/A   Clear
7:15 PM 60.8 °F - 42.8 °F 52% 30.24 in 10.0 mi WNW 5.8 mph - N/A   Clear
7:35 PM 59.0 °F - 42.8 °F 55% 30.24 in 10.0 mi West 4.6 mph - N/A   Clear
7:55 PM 57.2 °F - 42.8 °F 59% 30.25 in 10.0 mi West 3.5 mph - N/A   Clear
8:15 PM 57.2 °F - 44.6 °F 63% 30.25 in 10.0 mi Calm Calm - N/A   Clear
8:35 PM 51.8 °F - 42.8 °F 71% 30.25 in 10.0 mi Calm Calm - N/A   Clear
8:55 PM 51.8 °F - 42.8 °F 71% 30.25 in 10.0 mi Calm Calm - N/A   Clear
9:15 PM 50.0 °F - 42.8 °F 76% 30.25 in 10.0 mi Calm Calm - N/A   Clear
9:35 PM 48.2 °F - 42.8 °F 82% 30.25 in 10.0 mi Calm Calm - N/A   Clear
9:55 PM 50.0 °F - 44.6 °F 82% 30.25 in 10.0 mi Calm Calm - N/A   Clear
10:15 PM 48.2 °F - 44.6 °F 87% 30.25 in 10.0 mi Calm Calm - N/A   Clear
10:35 PM 46.4 °F - 44.6 °F 93% 30.25 in 10.0 mi Calm Calm - N/A   Clear
10:55 PM 46.4 °F - 44.6 °F 93% 30.25 in 10.0 mi Calm Calm - N/A   Clear
11:15 PM 44.6 °F 43.1 °F 42.8 °F 93% 30.25 in 10.0 mi North 3.5 mph - N/A   Clear
11:35 PM 46.4 °F - 44.6 °F 93% 30.26 in 10.0 mi Calm Calm - N/A   Clear
11:55 PM 44.6 °F - 42.8 °F 93% 30.26 in 7.0 mi Calm Calm - N/A   Clear